SCP
0 0 0 0 0 0 0 0 0 0 0 0 0 0 -0 0 0 0 0 0 -0 -0 -0 -0 -0 0 0 -0 -0 -0 -0 -0 -0 -0 -0 -0 -0 -0 -0 -0 -0 -0 -0 -0 -0 -0 -0 -0 -0
0 0 0 0 0 0 0 0 0 0 0 0 0 0 0 0 0 0 0 0 -0 -0 -0 -0 -0 -0 0 0 0 0 -0 -0 -0 -0 -0 -0 -0 -0 -0 -0 -0 -0 -0 -0 -0 -0 0 0 0
0 0 0 0 0 0 0 0 0 0 0 0 0 0 0 0 0 0 0 0 0 0 0 0 -0 -0 -0 0 0 0 0 0 0 0 0 0 0 0 0 0 0 0 0 0 0 0 0 0 0
0 0 0 0 0 0 0 0 0 0 0 0 0 0 0 0 0 0 0 0 0 0 0 0 -0 -0 -0 -0 0 0 0 0 0 0 0 0 0 0 0 0 0 0 0 0 0 0 0 0 0
0 0 0 0 0 0 0 0 0 0 0 0 0 0 0 0 0 0 0 0 0 0 0 0 0 -0 -0 -0 -0 0 0 0 0 0 0 0 0 0 0 0 0 0 0 0 0 0 0 0 0
0 0 0 0 0 0 0 0 0 0 0 0 0 0 0 0 0 0 0 0 0 0 0 0 0 0 0 -0 0 0 0 0 0 0 0 0 0 0 0 0 0 0 0 0 0 0 0 0 0
0 0 0 0 0 0 0 0 0 0 0 0 0 0 0 0 0 0 0 0 0 0 0 0 0 0 0 0 0 0 0 0 0 0 0 0 0 0 0 0 0 0 0 0 0 0 0 0 0
0 0 0 0 0 0 0 0 0 0 0 0 0 0 0 0 0 0 0 0 0 0 0 0 0 0 0 0 0 0 0 0 0 0 0 0 0 0 0 0 0 0 0 0 0 0 0 0 0
0 0 0 0 0 0 0 0 0 0 0 0 0 0 0 0 0 0 0 0 0 0 0 0 0 0 0 0 0 0 0 0 0 0 0 0 0 0 0 0 0 0 0 0 0 0 0 0 0
0 0 0 0 0 0 0 0 0 0 0 0 0 0 0 0 0 0 0 0 0 0 0 0 0 0 0 0 0 0 0 0 0 0 0 0 0 0 0 0 0 0 0 0 0 0 0 0 0
0 0 0 0 0 0 -0 -0 0 0 0 0 0 0 0 0 0 0 0 0 0 0 0 0 0 0 0 0 0 0 0 0 0 0 0 0 0 0 0 0 0 0 0 0 0 0 0 0 0
0 0 0 0 0 0 0 -0 -0 0 0 0 0 0 0 0 0 0 0 0 0 0 0 0 0 0 0 0 0 0 0 0 0 0 0 0 0 0 0 0 0 0 0 0 0 0 0 0 0
0 0 0 0 0 0 0 0 -0 -0 -0 0 0 0 0 0 0 0 0 0 0 0 0 0 0 0 0 0 0 0 0 0 0 0 0 0 0 0 0 0 0 0 0 0 0 0 0 0 0
0 0 0 0 0 0 0 0 -0 -0 -0 -0 0 0 0 0 0 0 0 0 0 0 0 0 0 0 0 0 0 0 0 0 0 0 0 0 0 0 0 0 0 0 0 0 0 0 0 0 0
0 0 0 0 0 0 0 -0 0 0 0 0 0 0 0 0 0 0 0 0 0 0 0 0 0 0 0 0 0 0 0 0 0 0 0 0 0 0 0 0 0 0 0 0 0 0 0 0 0
0 0 0 0 0 0 0 -0 0 0 0 -0 -0 0 0 0 0 0 0 0 0 0 0 0 0 0 0 0 0 0 0 0 0 0 0 0 0 0 0 0 0 0 0 0 0 0 0 0 0
0 0 0 0 0 0 0 0 0 0 0 0 0 0 0 0 0 0 0 0 0 0 0 0 0 0 0 0 0 0 0 0 0 0 0 0 0 0 0 0 0 0 0 0 0 0 0 0 0
0 0 0 0 0 0 0 0 0 0 0 0 0 0 0 0 0 0 0 0 0 0 0 0 0 0 0 0 0 0 0 0 0 0 0 0 0 0 0 0 0 0 0 0 0 0 0 0 0
0 0 0 0 0 0 0 0 0 0 0 0 0 0 0 0 0 0 0 0 0 0 0 0 0 0 0 0 0 0 0 0 0 0 0 0 0 0 0 0 0 0 0 0 0 0 0 0 0
0 0 0 0 0 0 0 0 0 0 0 0 0 0 0 0 0 0 0 0 0 0 0 0 0 0 0 0 0 0 0 0 0 0 0 0 0 0 0 0 0 0 0 0 0 0 0 0 0
0 0 0 0 0 0 0 0 0 0 0 0 0 0 0 0 0 0 0 0 0 0 0 0 0 0 0 0 0 0 0 0 0 0 0 0 0 0 0 0 0 0 0 0 0 0 0 0 0
0 0 0 0 0 0 0 0 0 0 0 0 0 0 0 0 0 0 0 0 0 0 0 0 0 0 0 0 0 0 0 0 0 0 0 0 0 0 0 0 0 0 0 0 0 0 0 0 0
0 0 0 0 0 0 0 0 0 0 0 0 0 0 0 0 0 0 0 0 0 0 0 0 0 0 0 0 0 0 0 0 0 0 0 0 0 0 0 0 0 0 0 0 0 0 0 0 0
0 0 0 0 0 0 0 0 0 -0 0 0 0 0 0 0 0 0 0 0 0 0 0 0 0 0 0 0 0 0 0 0 0 0 0 0 0 0 0 0 0 0 0 0 0 0 0 0 0
0 0 0 0 0 0 0 0 0 -0 0 0 0 0 0 0 0 0 0 0 0 0 0 0 0 0 0 0 0 0 0 0 0 0 0 0 0 0 0 0 0 0 0 0 0 0 0 0 0
0 0 0 0 0 0 0 0 0 0 0 0 0 0 0 0 0 0 0 0 0 0 0 0 0 0 0 0 0 0 0 0 0 0 0 0 0 0 0 0 0 0 0 0 0 0 0 0 0
0 0 0 0 0 0 0 -0 -0 -0 -0 -0 -0 0 0 0 0 0 0 0 0 0 0 0 0 0 0 0 0 0 0 0 0 0 0 0 0 0 0 0 0 0 0 0 0 0 0 0 0
0 0 0 0 0 -0 0 -0 -0 -0 -0 -0 -0 0 0 0 0 0 0 0 0 0 0 0 0 0 0 0 0 0 0 0 0 0 0 0 0 0 0 0 0 0 0 0 0 0 0 0 0
0 0 0 -0 -0 -0 -0 -0 -0 -0 -0 -0 -0 0 0 0 0 0 0 0 0 0 0 0 0 0 0 0 0 0 0 0 0 0 0 0 0 0 0 0 0 0 0 0 0 0 0 0 0
0 0 -0 -0 -0 -0 -0 -0 -0 -0 -0 -0 -0 0 0 0 0 0 0 0 0 0 0 0 0 0 0 0 0 0 0 0 0 0 0 0 0 0 0 0 0 0 0 0 0 0 0 0 0
Wind_Speed_500mb
13 15 11 5 5 8 6 11 4 14 10 8 21 12 24 15 11 9 14 42 58 60 54 46 42 47 49 40 33 25 26 22 23 24 25 26 25 24 24 23 23 22 22 22 22 21 20 20 20
15 10 3 2 8 4 10 8 10 5 15 7 9 8 7 9 12 6 33 50 60 59 56 51 47 46 52 40 36 27 25 25 26 26 26 25 24 23 22 21 23 21 20 22 23 22 21 21 19
15 12 5 9 8 10 10 10 7 12 10 4 3 3 4 5 17 15 27 56 64 62 58 55 52 45 52 47 37 27 26 28 29 29 27 23 21 21 21 21 22 19 21 23 22 22 20 20 18
9 5 2 4 15 14 15 4 5 11 6 10 2 5 8 10 10 29 49 60 67 63 61 55 51 44 41 44 37 30 29 31 29 27 26 23 22 22 23 22 22 21 21 20 20 20 19 17 17
9 5 4 6 11 10 8 14 7 4 7 8 13 8 8 15 18 37 57 66 68 63 60 56 51 46 36 36 36 34 33 32 31 28 27 25 25 25 24 24 22 20 17 18 19 21 20 18 19
6 4 1 10 12 10 9 16 11 8 10 9 14 10 7 14 23 42 57 65 63 63 62 57 50 43 37 38 39 38 36 34 32 31 28 28 27 25 24 22 22 20 17 18 19 19 19 16 15
10 6 10 9 8 10 11 17 12 12 13 15 14 14 7 27 25 45 59 63 60 59 59 59 53 43 40 41 41 40 38 36 34 31 31 30 28 26 25 23 22 19 17 17 16 16 12 10 8
9 6 9 12 14 21 11 10 13 12 10 10 18 13 12 38 41 52 63 63 59 60 58 55 51 47 46 44 42 41 39 36 35 36 33 30 28 27 25 22 19 16 14 15 15 9 9 6 3
9 5 20 12 12 12 15 8 18 15 15 14 19 18 11 28 51 61 67 67 65 64 60 59 55 49 45 43 44 43 41 39 40 38 34 30 27 25 23 20 18 16 11 8 9 4 7 7 6
12 8 12 12 12 10 33 24 36 17 17 12 19 32 30 28 62 76 81 83 79 75 69 65 61 53 47 45 46 45 44 44 42 39 36 30 22 18 16 17 18 16 14 6 6 5 9 4 4
8 11 6 5 24 33 36 17 33 18 13 23 30 41 34 39 69 81 85 88 94 86 78 73 65 56 48 45 47 46 46 45 42 39 30 21 24 17 15 16 17 12 10 7 10 9 9 7 7
13 8 14 15 22 28 14 22 13 46 46 49 39 34 35 50 79 88 91 93 95 91 85 80 73 62 55 46 45 47 48 46 40 34 31 28 22 20 20 13 13 12 13 14 10 9 9 9 9
8 12 30 37 48 47 42 41 32 41 41 43 47 46 40 51 76 92 85 75 86 91 89 88 80 69 59 51 50 51 48 44 41 36 31 29 27 24 21 18 15 14 13 12 11 11 10 10 10
17 27 33 31 38 40 39 49 33 5 4 33 49 63 64 60 73 95 92 84 90 95 92 89 84 77 70 61 53 52 48 44 41 36 35 33 27 23 21 20 20 21 17 14 12 12 14 12 12
25 23 25 18 24 17 28 59 59 48 60 65 70 69 60 67 80 99 107 105 98 95 86 90 87 82 78 68 59 52 50 50 43 38 35 34 31 28 26 25 24 22 19 15 16 16 15 15 16
11 6 8 9 25 13 21 75 15 33 51 56 65 74 70 73 85 96 106 105 102 99 88 88 89 86 79 73 69 59 57 56 46 38 39 36 33 31 28 28 26 23 20 19 20 18 17 17 18
8 9 11 14 10 16 18 49 15 28 45 49 49 59 61 68 82 97 103 109 112 105 92 86 91 89 81 76 70 63 62 61 52 45 46 43 36 31 27 28 28 24 22 22 19 18 17 19 21
10 16 16 23 10 38 46 63 32 46 58 36 40 55 66 64 80 92 107 109 107 107 97 88 95 88 79 77 72 64 63 64 57 52 52 44 42 38 35 34 30 24 24 21 19 18 20 21 22
18 25 34 29 29 34 43 57 43 46 41 50 43 55 56 62 80 84 99 102 106 108 105 102 103 92 86 83 82 75 73 69 62 60 52 51 49 45 38 33 29 27 24 21 19 19 21 26 27
16 23 37 33 25 24 37 55 39 33 44 60 65 56 62 66 55 78 100 101 106 112 112 107 109 99 92 87 88 81 74 72 65 60 55 52 51 45 39 32 29 26 23 21 19 17 20 23 28
11 16 34 35 33 30 41 54 46 40 60 70 83 82 77 77 71 73 93 104 109 114 120 121 113 100 94 95 91 81 75 72 70 66 60 54 50 44 37 35 32 28 23 20 18 16 16 20 27
22 24 30 27 19 23 12 38 45 37 42 40 67 79 74 81 73 77 95 105 119 120 118 124 108 110 103 100 98 86 84 84 77 73 65 61 53 45 41 35 29 25 22 19 17 18 17 16 17
22 5 21 31 31 27 36 18 27 16 26 41 36 65 77 89 84 81 94 106 117 123 126 129 117 113 103 99 91 91 83 84 79 77 70 64 58 48 46 37 30 24 20 17 16 14 14 15 13
26 19 30 30 15 18 54 24 31 29 35 38 41 62 78 80 77 81 85 99 112 123 129 131 128 107 103 96 100 96 92 89 86 80 74 69 61 53 44 36 30 24 18 16 13 12 12 12 10
4 14 10 9 4 14 5 6 18 33 25 35 43 53 59 69 68 73 81 89 106 117 129 128 114 103 110 107 104 98 92 87 89 84 77 72 61 50 46 38 31 24 19 14 11 10 9 8 5
22 11 5 11 12 34 28 15 19 13 21 35 40 67 55 62 71 73 77 85 75 103 128 120 115 117 114 113 108 97 91 94 90 88 78 62 56 50 41 30 21 20 17 14 11 11 8 5 1
7 7 13 14 24 22 8 16 13 17 34 41 43 59 46 56 67 67 66 77 82 75 125 127 122 120 118 113 106 97 95 89 84 76 66 57 50 42 34 25 24 16 12 13 12 10 6 3 3
11 8 10 7 11 15 12 13 7 29 45 49 45 34 40 57 49 56 63 65 87 84 73 117 118 115 112 115 107 100 88 74 73 69 67 58 53 46 35 27 17 20 17 15 12 8 6 4 7
8 8 6 7 6 9 16 11 4 17 29 42 48 50 51 48 53 62 50 53 69 82 87 98 112 114 112 104 94 78 70 70 71 69 64 55 44 37 30 26 25 21 17 15 12 10 8 8 11
10 11 5 9 13 16 22 16 7 9 24 31 36 50 27 47 47 45 49 52 59 74 81 77 90 88 84 79 73 72 71 76 78 67 58 48 39 35 33 27 25 24 19 14 15 13 11 13 13
Wind_Direction_500mb
321 322 318 313 52 65 243 253 251 317 323 311 159 158 185 166 182 207 172 176 175 176 174 176 171 171 170 180 186 182 168 164 157 147 138 134 129 118 114 105 99 94 87 94 99 97 93 89 86
320 318 269 64 103 149 263 256 263 233 291 127 162 119 139 198 211 193 155 169 176 175 173 170 169 170 174 182 181 169 166 166 157 149 143 138 134 129 121 114 105 97 98 97 93 95 93 88 85
303 304 229 132 146 191 221 221 181 310 195 81 144 322 217 241 207 189 166 167 174 175 173 171 176 177 181 188 190 183 175 169 160 153 147 140 132 128 119 116 106 108 101 102 97 93 89 83 82
303 267 43 123 204 229 199 217 280 347 208 288 236 266 259 220 226 182 171 170 174 175 174 174 180 180 182 192 192 187 180 172 161 152 144 137 131 122 118 114 109 108 102 100 101 95 90 83 84
292 250 214 228 257 279 254 250 262 315 275 211 178 257 253 222 202 178 174 172 174 175 176 178 183 184 186 190 188 184 178 170 163 153 147 140 134 129 125 119 110 100 99 104 99 89 83 84 86
217 153 185 243 242 250 276 263 292 263 257 211 191 173 237 198 191 175 177 176 180 178 179 183 187 189 192 189 185 180 175 170 163 158 152 148 144 137 130 126 124 123 117 112 106 94 86 82 82
178 142 211 216 236 278 247 256 209 250 275 258 220 151 223 195 186 182 179 181 184 182 183 186 189 193 191 186 182 178 174 170 163 158 155 152 146 140 136 134 130 129 123 117 106 87 78 71 71
231 143 207 206 214 258 238 226 229 231 275 281 203 196 213 207 186 189 181 184 188 186 185 190 190 188 187 184 182 178 174 169 163 160 159 155 150 147 142 140 138 125 121 114 94 82 111 102 88
206 229 242 217 189 240 276 240 245 241 239 206 216 246 220 199 188 188 186 186 188 191 192 192 190 186 186 184 180 176 174 171 168 165 159 155 154 154 150 146 137 126 135 125 130 189 311 330 106
199 223 246 187 206 235 262 231 247 244 225 236 242 251 259 218 193 188 190 187 189 192 194 193 190 187 185 185 181 177 176 175 170 166 160 160 161 162 155 145 146 145 143 177 159 254 306 313 143
251 257 259 246 256 258 263 258 248 207 226 237 260 279 265 213 199 193 198 196 194 191 193 192 190 187 187 188 183 181 182 178 177 173 169 180 178 160 178 177 153 164 170 203 235 246 291 255 201
322 301 333 330 329 305 279 294 250 232 241 255 262 270 268 215 203 204 206 202 199 196 194 192 191 190 190 191 193 188 185 182 178 172 172 177 178 183 194 187 166 204 207 209 232 263 267 212 185
244 339 321 317 314 306 291 273 266 256 262 257 264 262 258 236 221 211 206 203 206 198 195 195 190 191 196 192 196 192 188 185 179 174 179 191 193 195 204 213 205 212 206 221 242 257 203 177 184
310 300 303 304 297 289 287 284 271 190 293 262 262 255 254 236 227 216 207 207 212 204 201 197 192 192 196 196 201 196 192 191 185 182 186 193 195 205 212 215 213 216 220 230 248 198 184 194 199
300 303 308 255 252 238 284 272 253 262 263 264 267 266 261 243 229 219 216 214 212 209 203 198 196 195 195 195 203 199 193 187 185 187 194 198 203 210 212 218 220 216 225 233 203 197 204 208 206
315 279 334 322 350 267 204 260 341 279 256 247 249 251 247 243 230 228 221 217 213 209 206 201 196 198 199 199 202 199 193 188 189 199 198 203 210 215 222 225 218 217 224 210 199 206 210 205 203
335 282 286 307 261 286 249 285 345 300 273 263 254 254 247 242 230 222 219 218 214 210 208 203 203 199 201 198 198 196 194 192 193 202 201 208 209 214 221 212 213 220 217 200 205 213 212 204 199
277 282 276 284 305 307 294 287 295 302 292 278 278 263 249 242 228 223 221 217 214 212 207 203 204 199 203 198 194 194 194 193 194 206 212 209 208 213 210 208 213 219 208 207 210 211 206 206 203
267 274 277 278 282 275 269 277 282 280 274 283 270 269 269 248 240 231 223 217 212 211 206 203 201 200 205 200 197 195 195 195 201 207 209 209 209 207 205 209 212 206 204 209 206 204 200 191 193
266 282 287 280 262 256 275 277 278 272 263 266 273 260 256 254 249 230 223 217 215 213 208 204 203 204 205 205 203 202 197 199 205 208 209 208 209 202 203 205 206 203 209 207 200 195 199 198 196
276 261 276 276 285 271 284 280 282 270 253 254 255 254 248 248 244 229 218 217 215 213 209 206 203 207 208 203 204 205 202 203 205 207 205 204 205 197 202 199 197 201 199 205 199 196 201 210 200
280 250 269 277 299 287 177 286 280 280 266 246 245 249 236 238 235 236 216 213 214 212 210 209 205 206 208 205 207 209 207 205 207 208 202 202 200 193 192 192 194 196 194 195 194 193 196 198 207
254 277 275 281 275 281 276 261 290 259 265 247 240 239 229 232 229 228 220 212 213 211 211 209 204 204 205 205 209 210 213 212 214 206 199 196 196 188 190 185 188 188 188 192 186 182 179 181 190
263 303 288 266 252 262 261 235 269 271 257 259 253 247 237 224 224 222 231 211 209 206 206 205 201 198 203 209 211 212 215 214 213 202 196 190 187 186 184 179 180 181 182 184 178 175 167 169 171
87 336 307 327 307 255 11 293 240 295 269 252 260 257 241 223 217 218 213 206 208 204 202 202 197 198 202 208 212 212 216 219 220 203 196 190 182 181 177 171 172 174 178 184 176 171 178 169 162
296 192 235 278 288 291 292 248 258 264 324 327 310 283 247 215 213 217 209 203 209 197 203 199 198 203 204 208 212 211 215 215 213 203 194 181 173 175 169 161 162 169 173 175 175 185 184 165 200
312 241 224 272 258 266 252 286 308 357 347 335 327 313 213 199 209 212 213 203 208 196 199 204 200 204 205 207 209 212 216 213 203 188 172 177 165 164 153 162 168 175 188 188 193 192 185 212 314
206 300 316 328 296 298 276 274 281 339 346 327 313 306 240 203 204 207 213 207 208 205 199 200 203 202 205 204 205 208 207 200 185 173 162 166 161 162 155 167 174 201 194 198 194 204 230 272 313
333 293 297 228 218 290 312 294 1 332 339 323 310 292 282 210 205 219 214 206 204 200 200 194 193 194 199 197 199 198 187 178 170 167 162 163 161 149 158 178 187 193 202 203 209 229 250 279 287
217 271 261 307 302 281 269 276 209 18 355 333 313 302 223 194 200 201 206 199 192 192 189 194 192 192 191 189 187 181 176 172 167 168 157 150 166 165 183 179 193 201 203 213 229 240 252 264 277
Wind_Speed_850mb
13 15 11 5 5 8 6 11 4 14 10 8 21 12 24 15 11 9 14 42 58 60 54 46 42 47 49 40 33 25 26 22 23 24 25 26 25 24 24 23 23 22 22 22 22 21 20 20 20
15 10 3 2 8 4 10 8 10 5 15 7 9 8 7 9 12 6 33 50 60 59 56 51 47 46 52 40 36 27 25 25 26 26 26 25 24 23 22 21 23 21 20 22 23 22 21 21 19
15 12 5 9 8 10 10 10 7 12 10 4 3 3 4 5 17 15 27 56 64 62 58 55 52 45 52 47 37 27 26 28 29 29 27 23 21 21 21 21 22 19 21 23 22 22 20 20 18
9 5 2 4 15 14 15 4 5 11 6 10 2 5 8 10 10 29 49 60 67 63 61 55 51 44 41 44 37 30 29 31 29 27 26 23 22 22 23 22 22 21 21 20 20 20 19 17 17
9 5 4 6 11 10 8 14 7 4 7 8 13 8 8 15 18 37 57 66 68 63 60 56 51 46 36 36 36 34 33 32 31 28 27 25 25 25 24 24 22 20 17 18 19 21 20 18 19
6 4 1 10 12 10 9 16 11 8 10 9 14 10 7 14 23 42 57 65 63 63 62 57 50 43 37 38 39 38 36 34 32 31 28 28 27 25 24 22 22 20 17 18 19 19 19 16 15
10 6 10 9 8 10 11 17 12 12 13 15 14 14 7 27 25 45 59 63 60 59 59 59 53 43 40 41 41 40 38 36 34 31 31 30 28 26 25 23 22 19 17 17 16 16 12 10 8
9 6 9 12 14 21 11 10 13 12 10 10 18 13 12 38 41 52 63 63 59 60 58 55 51 47 46 44 42 41 39 36 35 36 33 30 28 27 25 22 19 16 14 15 15 9 9 6 3
9 5 20 12 12 12 15 8 18 15 15 14 19 18 11 28 51 61 67 67 65 64 60 59 55 49 45 43 44 43 41 39 40 38 34 30 27 25 23 20 18 16 11 8 9 4 7 7 6
12 8 12 12 12 10 33 24 36 17 17 12 19 32 30 28 62 76 81 83 79 75 69 65 61 53 47 45 46 45 44 44 42 39 36 30 22 18 16 17 18 16 14 6 6 5 9 4 4
8 11 6 5 24 33 36 17 33 18 13 23 30 41 34 39 69 81 85 88 94 86 78 73 65 56 48 45 47 46 46 45 42 39 30 21 24 17 15 16 17 12 10 7 10 9 9 7 7
13 8 14 15 22 28 14 22 13 46 46 49 39 34 35 50 79 88 91 93 95 91 85 80 73 62 55 46 45 47 48 46 40 34 31 28 22 20 20 13 13 12 13 14 10 9 9 9 9
8 12 30 37 48 47 42 41 32 41 41 43 47 46 40 51 76 92 85 75 86 91 89 88 80 69 59 51 50 51 48 44 41 36 31 29 27 24 21 18 15 14 13 12 11 11 10 10 10
17 27 33 31 38 40 39 49 33 5 4 33 49 63 64 60 73 95 92 84 90 95 92 89 84 77 70 61 53 52 48 44 41 36 35 33 27 23 21 20 20 21 17 14 12 12 14 12 12
25 23 25 18 24 17 28 59 59 48 60 65 70 69 60 67 80 99 107 105 98 95 86 90 87 82 78 68 59 52 50 50 43 38 35 34 31 28 26 25 24 22 19 15 16 16 15 15 16
11 6 8 9 25 13 21 75 15 33 51 56 65 74 70 73 85 96 106 105 102 99 88 88 89 86 79 73 69 59 57 56 46 38 39 36 33 31 28 28 26 23 20 19 20 18 17 17 18
8 9 11 14 10 16 18 49 15 28 45 49 49 59 61 68 82 97 103 109 112 105 92 86 91 89 81 76 70 63 62 61 52 45 46 43 36 31 27 28 28 24 22 22 19 18 17 19 21
10 16 16 23 10 38 46 63 32 46 58 36 40 55 66 64 80 92 107 109 107 107 97 88 95 88 79 77 72 64 63 64 57 52 52 44 42 38 35 34 30 24 24 21 19 18 20 21 22
18 25 34 29 29 34 43 57 43 46 41 50 43 55 56 62 80 84 99 102 106 108 105 102 103 92 86 83 82 75 73 69 62 60 52 51 49 45 38 33 29 27 24 21 19 19 21 26 27
16 23 37 33 25 24 37 55 39 33 44 60 65 56 62 66 55 78 100 101 106 112 112 107 109 99 92 87 88 81 74 72 65 60 55 52 51 45 39 32 29 26 23 21 19 17 20 23 28
11 16 34 35 33 30 41 54 46 40 60 70 83 82 77 77 71 73 93 104 109 114 120 121 113 100 94 95 91 81 75 72 70 66 60 54 50 44 37 35 32 28 23 20 18 16 16 20 27
22 24 30 27 19 23 12 38 45 37 42 40 67 79 74 81 73 77 95 105 119 120 118 124 108 110 103 100 98 86 84 84 77 73 65 61 53 45 41 35 29 25 22 19 17 18 17 16 17
22 5 21 31 31 27 36 18 27 16 26 41 36 65 77 89 84 81 94 106 117 123 126 129 117 113 103 99 91 91 83 84 79 77 70 64 58 48 46 37 30 24 20 17 16 14 14 15 13
26 19 30 30 15 18 54 24 31 29 35 38 41 62 78 80 77 81 85 99 112 123 129 131 128 107 103 96 100 96 92 89 86 80 74 69 61 53 44 36 30 24 18 16 13 12 12 12 10
4 14 10 9 4 14 5 6 18 33 25 35 43 53 59 69 68 73 81 89 106 117 129 128 114 103 110 107 104 98 92 87 89 84 77 72 61 50 46 38 31 24 19 14 11 10 9 8 5
22 11 5 11 12 34 28 15 19 13 21 35 40 67 55 62 71 73 77 85 75 103 128 120 115 117 114 113 108 97 91 94 90 88 78 62 56 50 41 30 21 20 17 14 11 11 8 5 1
7 7 13 14 24 22 8 16 13 17 34 41 43 59 46 56 67 67 66 77 82 75 125 127 122 120 118 113 106 97 95 89 84 76 66 57 50 42 34 25 24 16 12 13 12 10 6 3 3
11 8 10 7 11 15 12 13 7 29 45 49 45 34 40 57 49 56 63 65 87 84 73 117 118 115 112 115 107 100 88 74 73 69 67 58 53 46 35 27 17 20 17 15 12 8 6 4 7
8 8 6 7 6 9 16 11 4 17 29 42 48 50 51 48 53 62 50 53 69 82 87 98 112 114 112 104 94 78 70 70 71 69 64 55 44 37 30 26 25 21 17 15 12 10 8 8 11
10 11 5 9 13 16 22 16 7 9 24 31 36 50 27 47 47 45 49 52 59 74 81 77 90 88 84 79 73 72 71 76 78 67 58 48 39 35 33 27 25 24 19 14 15 13 11 13 13
Wind_Direction_850mb
321 322 318 313 52 65 243 253 251 317 323 311 159 158 185 166 182 207 172 176 175 176 174 176 171 171 170 180 186 182 168 164 157 147 138 134 129 118 114 105 99 94 87 94 99 97 93 89 86
320 318 269 64 103 149 263 256 263 233 291 127 162 119 139 198 211 193 155 169 176 175 173 170 169 170 174 182 181 169 166 166 157 149 143 138 134 129 121 114 105 97 98 97 93 95 93 88 85
303 304 229 132 146 191 221 221 181 310 195 81 144 322 217 241 207 189 166 167 174 175 173 171 176 177 181 188 190 183 175 169 160 153 147 140 132 128 119 116 106 108 101 102 97 93 89 83 82
303 267 43 123 204 229 199 217 280 347 208 288 236 266 259 220 226 182 171 170 174 175 174 174 180 180 182 192 192 187 180 172 161 152 144 137 131 122 118 114 109 108 102 100 101 95 90 83 84
292 250 214 228 257 279 254 250 262 315 275 211 178 257 253 222 202 178 174 172 174 175 176 178 183 184 186 190 188 184 178 170 163 153 147 140 134 129 125 119 110 100 99 104 99 89 83 84 86
217 153 185 243 242 250 276 263 292 263 257 211 191 173 237 198 191 175 177 176 180 178 179 183 187 189 192 189 185 180 175 170 163 158 152 148 144 137 130 126 124 123 117 112 106 94 86 82 82
178 142 211 216 236 278 247 256 209 250 275 258 220 151 223 195 186 182 179 181 184 182 183 186 189 193 191 186 182 178 174 170 163 158 155 152 146 140 136 134 130 129 123 117 106 87 78 71 71
231 143 207 206 214 258 238 226 229 231 275 281 203 196 213 207 186 189 181 184 188 186 185 190 190 188 187 184 182 178 174 169 163 160 159 155 150 147 142 140 138 125 121 114 94 82 111 102 88
206 229 242 217 189 240 276 240 245 241 239 206 216 246 220 199 188 188 186 186 188 191 192 192 190 186 186 184 180 176 174 171 168 165 159 155 154 154 150 146 137 126 135 125 130 189 311 330 106
199 223 246 187 206 235 262 231 247 244 225 236 242 251 259 218 193 188 190 187 189 192 194 193 190 187 185 185 181 177 176 175 170 166 160 160 161 162 155 145 146 145 143 177 159 254 306 313 143
251 257 259 246 256 258 263 258 248 207 226 237 260 279 265 213 199 193 198 196 194 191 193 192 190 187 187 188 183 181 182 178 177 173 169 180 178 160 178 177 153 164 170 203 235 246 291 255 201
322 301 333 330 329 305 279 294 250 232 241 255 262 270 268 215 203 204 206 202 199 196 194 192 191 190 190 191 193 188 185 182 178 172 172 177 178 183 194 187 166 204 207 209 232 263 267 212 185
244 339 321 317 314 306 291 273 266 256 262 257 264 262 258 236 221 211 206 203 206 198 195 195 190 191 196 192 196 192 188 185 179 174 179 191 193 195 204 213 205 212 206 221 242 257 203 177 184
310 300 303 304 297 289 287 284 271 190 293 262 262 255 254 236 227 216 207 207 212 204 201 197 192 192 196 196 201 196 192 191 185 182 186 193 195 205 212 215 213 216 220 230 248 198 184 194 199
300 303 308 255 252 238 284 272 253 262 263 264 267 266 261 243 229 219 216 214 212 209 203 198 196 195 195 195 203 199 193 187 185 187 194 198 203 210 212 218 220 216 225 233 203 197 204 208 206
315 279 334 322 350 267 204 260 341 279 256 247 249 251 247 243 230 228 221 217 213 209 206 201 196 198 199 199 202 199 193 188 189 199 198 203 210 215 222 225 218 217 224 210 199 206 210 205 203
335 282 286 307 261 286 249 285 345 300 273 263 254 254 247 242 230 222 219 218 214 210 208 203 203 199 201 198 198 196 194 192 193 202 201 208 209 214 221 212 213 220 217 200 205 213 212 204 199
277 282 276 284 305 307 294 287 295 302 292 278 278 263 249 242 228 223 221 217 214 212 207 203 204 199 203 198 194 194 194 193 194 206 212 209 208 213 210 208 213 219 208 207 210 211 206 206 203
267 274 277 278 282 275 269 277 282 280 274 283 270 269 269 248 240 231 223 217 212 211 206 203 201 200 205 200 197 195 195 195 201 207 209 209 209 207 205 209 212 206 204 209 206 204 200 191 193
266 282 287 280 262 256 275 277 278 272 263 266 273 260 256 254 249 230 223 217 215 213 208 204 203 204 205 205 203 202 197 199 205 208 209 208 209 202 203 205 206 203 209 207 200 195 199 198 196
276 261 276 276 285 271 284 280 282 270 253 254 255 254 248 248 244 229 218 217 215 213 209 206 203 207 208 203 204 205 202 203 205 207 205 204 205 197 202 199 197 201 199 205 199 196 201 210 200
280 250 269 277 299 287 177 286 280 280 266 246 245 249 236 238 235 236 216 213 214 212 210 209 205 206 208 205 207 209 207 205 207 208 202 202 200 193 192 192 194 196 194 195 194 193 196 198 207
254 277 275 281 275 281 276 261 290 259 265 247 240 239 229 232 229 228 220 212 213 211 211 209 204 204 205 205 209 210 213 212 214 206 199 196 196 188 190 185 188 188 188 192 186 182 179 181 190
263 303 288 266 252 262 261 235 269 271 257 259 253 247 237 224 224 222 231 211 209 206 206 205 201 198 203 209 211 212 215 214 213 202 196 190 187 186 184 179 180 181 182 184 178 175 167 169 171
87 336 307 327 307 255 11 293 240 295 269 252 260 257 241 223 217 218 213 206 208 204 202 202 197 198 202 208 212 212 216 219 220 203 196 190 182 181 177 171 172 174 178 184 176 171 178 169 162
296 192 235 278 288 291 292 248 258 264 324 327 310 283 247 215 213 217 209 203 209 197 203 199 198 203 204 208 212 211 215 215 213 203 194 181 173 175 169 161 162 169 173 175 175 185 184 165 200
312 241 224 272 258 266 252 286 308 357 347 335 327 313 213 199 209 212 213 203 208 196 199 204 200 204 205 207 209 212 216 213 203 188 172 177 165 164 153 162 168 175 188 188 193 192 185 212 314
206 300 316 328 296 298 276 274 281 339 346 327 313 306 240 203 204 207 213 207 208 205 199 200 203 202 205 204 205 208 207 200 185 173 162 166 161 162 155 167 174 201 194 198 194 204 230 272 313
333 293 297 228 218 290 312 294 1 332 339 323 310 292 282 210 205 219 214 206 204 200 200 194 193 194 199 197 199 198 187 178 170 167 162 163 161 149 158 178 187 193 202 203 209 229 250 279 287
217 271 261 307 302 281 269 276 209 18 355 333 313 302 223 194 200 201 206 199 192 192 189 194 192 192 191 189 187 181 176 172 167 168 157 150 166 165 183 179 193 201 203 213 229 240 252 264 277